Hourly Weather Ali-Yurt

Today, 6 March, Saturday

Time Temperature Precipitation Wind Pressure Humidity
00:00 +3°C° 0 mm 1 mps 702 mmHg 57%
01:00 +3°C° 0 mm 1 mps 702 mmHg 56%
02:00 +3°C° 0 mm 1 mps 702 mmHg 55%
03:00 +2°C° 0 mm 2 mps 702 mmHg 54%
04:00 +2°C° 0 mm 2 mps 702 mmHg 53%
05:00 +2°C° 0 mm 2 mps 702 mmHg 51%
06:00 +2°C° 0 mm 2 mps 702 mmHg 50%
07:00 +4°C° 0 mm 2 mps 702 mmHg 47%
08:00 +7°C° 0 mm 1 mps 702 mmHg 44%
09:00 +10°C° 0 mm 1 mps 702 mmHg 41%
10:00 +11°C° 0 mm 1 mps 702 mmHg 37%
11:00 +13°C° 0 mm 1 mps 702 mmHg 33%
12:00 +14°C° 0 mm 1 mps 701 mmHg 30%
13:00 +14°C° 0 mm 2 mps 701 mmHg 30%
14:00 +15°C° 0 mm 2 mps 700 mmHg 30%
15:00 +15°C° 0 mm 2 mps 700 mmHg 30%
16:00 +13°C° 0 mm 2 mps 700 mmHg 34%
17:00 +10°C° 0 mm 2 mps 700 mmHg 39%
18:00 +8°C° 0 mm 2 mps 700 mmHg 43%
19:00 +8°C° 0 mm 2 mps 699 mmHg 44%
20:00 +7°C° 0 mm 3 mps 699 mmHg 46%
21:00 +5°C° 0 mm 3 mps 699 mmHg 47%
22:00 +5°C° 0 mm 3 mps 699 mmHg 47%
23:00 +4°C° 0 mm 3 mps 699 mmHg 48%

Tomorrow, 7 March, Sunday

Time Temperature Precipitation Wind Pressure Humidity
00:00 +4°C° 0 mm 3 mps 698 mmHg 48%
01:00 +5°C° 0 mm 2 mps 699 mmHg 50%
02:00 +4°C° 0 mm 2 mps 699 mmHg 51%
03:00 +4°C° 0 mm 2 mps 699 mmHg 53%
04:00 +2°C° 0.3 mm 3 mps 700 mmHg 67%
05:00 -1°C° 0.3 mm 4 mps 701 mmHg 80%
06:00 -2°C° 0.3 mm 5 mps 701 mmHg 94%
07:00 -3°C° 0.7 mm 4 mps 702 mmHg 91%
08:00 -3°C° 0.7 mm 4 mps 702 mmHg 88%
09:00 -2°C° 0.7 mm 3 mps 703 mmHg 85%
10:00 -2°C° 0.3 mm 3 mps 702 mmHg 82%
11:00 -2°C° 0.3 mm 3 mps 702 mmHg 78%
12:00 -1°C° 0.3 mm 3 mps 702 mmHg 75%
13:00 -1°C° 0.2 mm 3 mps 702 mmHg 69%
14:00 -1°C° 0.2 mm 2 mps 702 mmHg 63%
15:00 -1°C° 0.2 mm 2 mps 702 mmHg 57%
16:00 -1°C° 0.1 mm 2 mps 702 mmHg 59%
17:00 0°C° 0.1 mm 1 mps 702 mmHg 60%
18:00 0°C° 0.1 mm 1 mps 702 mmHg 62%
19:00 -1°C° 0 mm 1 mps 703 mmHg 63%
20:00 -1°C° 0 mm 1 mps 703 mmHg 65%
21:00 -2°C° 0 mm 1 mps 703 mmHg 66%
22:00 -2°C° 0 mm 1 mps 703 mmHg 66%
23:00 -2°C° 0 mm 1 mps 703 mmHg 66%

Day after tomorrow, 8 March, Monday

Time Temperature Precipitation Wind Pressure Humidity
00:00 -3°C° 0 mm 0 mps 702 mmHg 66%
01:00 -3°C° 0 mm 0 mps 702 mmHg 67%
02:00 -3°C° 0 mm 0 mps 702 mmHg 67%
03:00 -3°C° 0 mm 0 mps 702 mmHg 67%
04:00 -4°C° 0 mm 0 mps 702 mmHg 68%
05:00 -4°C° 0 mm 0 mps 702 mmHg 69%
06:00 -4°C° 0 mm 0 mps 702 mmHg 69%
07:00 -3°C° 0 mm 0 mps 702 mmHg 65%
08:00 -2°C° 0 mm 0 mps 702 mmHg 61%
09:00 0°C° 0 mm 1 mps 702 mmHg 57%
10:00 +1°C° 0 mm 1 mps 701 mmHg 55%
11:00 +1°C° 0 mm 2 mps 701 mmHg 53%
12:00 +2°C° 0 mm 2 mps 700 mmHg 51%
13:00 +2°C° 0 mm 2 mps 700 mmHg 51%
14:00 +2°C° 0 mm 2 mps 699 mmHg 52%
15:00 +2°C° 0 mm 2 mps 699 mmHg 52%
16:00 +2°C° 0 mm 2 mps 699 mmHg 57%
17:00 +2°C° 0 mm 1 mps 699 mmHg 61%
18:00 +1°C° 0 mm 1 mps 699 mmHg 66%
19:00 +1°C° 0.1 mm 1 mps 699 mmHg 71%
20:00 +1°C° 0.1 mm 1 mps 699 mmHg 75%
21:00 0°C° 0.1 mm 1 mps 700 mmHg 80%
22:00 0°C° 0.1 mm 1 mps 699 mmHg 82%
23:00 0°C° 0.1 mm 1 mps 699 mmHg 84%

9 March, Tuesday

Time Temperature Precipitation Wind Pressure Humidity
00:00 -1°C° 0.1 mm 0 mps 699 mmHg 85%
01:00 -1°C° 0 mm 0 mps 699 mmHg 85%
02:00 -2°C° 0 mm 0 mps 699 mmHg 85%
03:00 -2°C° 0 mm 0 mps 699 mmHg 84%
04:00 -2°C° 0 mm 0 mps 699 mmHg 84%
05:00 -2°C° 0 mm 0 mps 699 mmHg 83%
06:00 -2°C° 0 mm 0 mps 699 mmHg 83%
07:00 -1°C° 0 mm 0 mps 700 mmHg 78%
08:00 0°C° 0 mm 0 mps 700 mmHg 73%
09:00 +1°C° 0 mm 0 mps 700 mmHg 68%
10:00 +3°C° 0 mm 1 mps 700 mmHg 65%
11:00 +4°C° 0 mm 1 mps 699 mmHg 62%
12:00 +4°C° 0 mm 2 mps 699 mmHg 59%
13:00 +4°C° 0 mm 2 mps 699 mmHg 57%
14:00 +5°C° 0 mm 1 mps 699 mmHg 56%
15:00 +5°C° 0 mm 1 mps 699 mmHg 55%
16:00 +5°C° 0 mm 1 mps 699 mmHg 58%
17:00 +4°C° 0 mm 1 mps 699 mmHg 62%
18:00 +3°C° 0 mm 1 mps 700 mmHg 65%
19:00 +3°C° 0 mm 1 mps 700 mmHg 66%
20:00 +2°C° 0 mm 1 mps 701 mmHg 67%
21:00 +2°C° 0 mm 1 mps 702 mmHg 68%
22:00 +1°C° 0 mm 1 mps 702 mmHg 69%
23:00 +1°C° 0 mm 1 mps 702 mmHg 70%

10 March, Wednesday

Time Temperature Precipitation Wind Pressure Humidity
00:00 0°C° 0 mm 1 mps 702 mmHg 72%
01:00 0°C° 0.4 mm 1 mps 702 mmHg 77%
02:00 0°C° 0.4 mm 1 mps 702 mmHg 82%
03:00 -1°C° 0.4 mm 1 mps 702 mmHg 88%
04:00 -1°C° 0.7 mm 1 mps 703 mmHg 89%
05:00 -2°C° 0.7 mm 0 mps 703 mmHg 90%
06:00 -2°C° 0.7 mm 0 mps 703 mmHg 91%
07:00 -1°C° 0.5 mm 1 mps 703 mmHg 90%
08:00 -1°C° 0.5 mm 1 mps 703 mmHg 89%
09:00 -2°C° 0.5 mm 2 mps 703 mmHg 88%
10:00 -2°C° 0.3 mm 2 mps 703 mmHg 86%
11:00 -2°C° 0.3 mm 2 mps 702 mmHg 85%
12:00 -2°C° 0.3 mm 2 mps 702 mmHg 83%
13:00 -2°C° 0.2 mm 2 mps 702 mmHg 81%
14:00 -1°C° 0.2 mm 3 mps 702 mmHg 80%
15:00 -1°C° 0.2 mm 3 mps 701 mmHg 78%
16:00 -2°C° 0.2 mm 3 mps 701 mmHg 80%
17:00 -2°C° 0.2 mm 2 mps 701 mmHg 81%
18:00 -3°C° 0.2 mm 2 mps 701 mmHg 82%
19:00 -4°C° 0.3 mm 3 mps 701 mmHg 86%
20:00 -5°C° 0.3 mm 3 mps 701 mmHg 90%
21:00 -5°C° 0.3 mm 3 mps 701 mmHg 94%
22:00 -5°C° 0.3 mm 3 mps 701 mmHg 94%
23:00 -5°C° 0.3 mm 3 mps 700 mmHg 94%

11 March, Thursday

Time Temperature Precipitation Wind Pressure Humidity
00:00 -5°C° 0.3 mm 2 mps 700 mmHg 94%
01:00 -6°C° 0.3 mm 3 mps 700 mmHg 94%
02:00 -6°C° 0.3 mm 3 mps 700 mmHg 94%
03:00 -6°C° 0.3 mm 3 mps 699 mmHg 94%
04:00 -6°C° 0.5 mm 3 mps 700 mmHg 94%
05:00 -6°C° 0.5 mm 3 mps 700 mmHg 95%
06:00 -6°C° 0.5 mm 2 mps 700 mmHg 95%
07:00 -6°C° 0.3 mm 3 mps 700 mmHg 94%
08:00 -6°C° 0.3 mm 3 mps 700 mmHg 92%
09:00 -6°C° 0.3 mm 3 mps 700 mmHg 91%
10:00 -5°C° 0.3 mm 3 mps 700 mmHg 91%
11:00 -5°C° 0.3 mm 4 mps 700 mmHg 92%
12:00 -4°C° 0.3 mm 4 mps 699 mmHg 92%
13:00 -4°C° 0.6 mm 4 mps 699 mmHg 92%
14:00 -4°C° 0.6 mm 4 mps 699 mmHg 92%
15:00 -5°C° 0.6 mm 5 mps 699 mmHg 92%
16:00 -5°C° 0.5 mm 4 mps 700 mmHg 93%
17:00 -7°C° 0.5 mm 4 mps 700 mmHg 94%
18:00 -7°C° 0.5 mm 4 mps 700 mmHg 94%
19:00 -8°C° 0.3 mm 4 mps 701 mmHg 94%
20:00 -7°C° 0.3 mm 3 mps 701 mmHg 94%
21:00 -8°C° 0.3 mm 3 mps 702 mmHg 94%
22:00 -8°C° 0.2 mm 3 mps 702 mmHg 94%
23:00 -7°C° 0.2 mm 2 mps 702 mmHg 94%
Show more

We Need Your Consent

Meteoprog and our Service Providers may store and access personal data such as cookies, device identifiers or other similar technologies on your device and process such data to personalise content and ads, as well as provide social media features and to analyse the traffic.

  • Store and/or access information on your device

    Cookies, device identifiers or other information can be stored or accessed on your device for the purposes indicated above.

  • Personalised ads and content, ad and content measurement, audience insights, and products development

    Ads and content can be personalised based on a profile. More data can be added to better personalise ads and content. Ad and content performance can be measured. Insights about the audience who saw the ads and content can be derived. Such data can be used to develop or improve user’s experience, systems and software.

By clicking ‘I Agree’ you will allow the use of indicated cookies, device identifiers, web beacons or other similar technologies. Your settings can be changed in the browser on your device.

For certain purposes, legitimate interests may be relied on, rather than consent. You can read more about this in our Privacy and Cookie Policy.